Powrót do katalogu

TOPO 1

AktywnyNaukaSSO
NORAD 4363·PAYLOAD·🇺🇸 United States

Wystrzelony Apr 8, 1970 z Vandenberg Space Force Base

Loading…

Następne Przeloty (najbliższe 24 godziny)

TLE

ŚwieżeSource: Space-Track

Epoka: Sep 14, 2026, 13:33 UTC

1 04363U 70025B   26257.56519999 -.00000022  00000-0  37782-4 0  9991
2 04363  99.8800 170.1973 0002485 122.8199   3.1064 13.46702049773222

Śledź TOPO 1 w czasie rzeczywistym z AllMySat

Download on the App Store